Weather in Losnya

Russia / Smolensk Oblast     54°35′49″N   32°20′12″E
temp.,
°C
wind,
m/s
gust,
m/s
humid.,
%
clouds,
%
prec.,
mm/h
press.,
hPa
HPBL,
m
23 april, fri
fri2300:00+7ssw399297 0.1 1011210
03:00+7wsw5895100 0.8 1011636
06:00+6wsw6886100 0.9 1012694
09:00+7sw5772100 1.3 1013969
12:00+9sw6954100 0.1 10131861
15:00+9wsw6846100 0.1 10132166
18:00+8w5655100 0.0 10121508
21:00+5wsw2369100 0.1 101356
24 april, sat
sat2400:00+3wsw347556 0.0 101288
03:00+1wsw338257 0.0 101166
06:00+1sw359199 0.3 1010222
09:00+3w4482100 0.6 1010725
12:00+1wnw51099100 3.1 1011518
15:00+3wnw7978100 6.2 10121056
18:00+4wnw697014 0.1 10121117
21:00+1wsw498416 0.1 1014192
25 april, sun
sun2500:00−1wsw4109046 0.0 1013200
03:00−2sw499325 0.0 1013201
06:000wsw499385 0.0 1013410
09:00+2wsw57758 0.3 1013851
12:00+5w6749100 0.2 10122094
15:00+4w675997 0.4 10121384
18:00+4w586132 0.5 10121509
21:00+1sw48805 0.5 1012144
26 april, mon
mon2600:00−1wsw49885 0.0 1012217
03:00−1wsw489733 0.0 1013221
06:00−1wsw489698 0.0 1013368
09:00+1wsw4677100 0.0 1013873
12:00+3sw5668100 0.1 10131144
15:00+6w564999 0.7 10111771
18:00+4w456099 0.8 10111086
21:000sw117573 0.8 101110
27 april, tue
tue2700:00−1ssw33825 0.0 101133
03:00−1sw359061 0.0 1010106
06:00−2wsw36966 0.0 1010172
09:00+3w457668 0.0 1010822
12:00+5w666689 0.5 10111357
15:00+4w5667100 0.6 10111172
18:00+4wsw377097 0.0 1012626
21:00+1w338755 0.0 101326